カタログに戻る

STARLINK-5620

運用中通信VLEO
NORAD 55414·PAYLOAD·🇺🇸 United States

打ち上げ Jan 31, 2023 から Vandenberg Space Force Base

Loading…

次のパス (今後24時間)

TLE

最新Source: CelesTrak SupGP

元期: Sep 14, 2026, 22:30 UTC

1 55414C 23014Z   26257.93798611  .00000867  00000+0  72713-4 0  2576
2 55414  70.0010 327.2051 0003604 267.5999  33.5590 14.98317735    13

AllMySatでSTARLINK-5620をリアルタイム追跡

Download on the App Store